Tracking 32964 objects as of 20-Jan-2026
HD Live streaming from Space Station
objects crossing your sky now

NOAA 16 DEB

Track NOAA 16 DEB now!
10-day predictions


NORAD ID: 41276
Int'l Code: 2000-055GC
Perigee: 811.4 km
Apogee: 831.7 km
Inclination: 98.7 °
Period: 101.2 minutes
Semi major axis: 7192 km
RCS: Unknown
Launch date: September 21, 2000
Source: United States (US)
Launch site: AIR FORCE WESTERN TEST RANGE (AFWTR)

Note: This is SATELLITE DEBRIS
Your satellite tracking list
Your tracking list is empty




NASA's NSSDC Master Catalog

Two Line Element Set (TLE):
1 41276U 00055GC  26019.58521841  .00003042  00000-0  13619-2 0  9993
2 41276  98.6586  71.7415 0014064 216.8030 143.2185 14.23240192519876
Source of the keplerian elements: AFSPC